PAGEOS 1 DEB, 2256

Orbit data source: Space-Track

PAGEOS 1 DEB, 2256 is space debris in LEO originally from a launch on Fri, 24 Jun 1966 UTC launched from the Air Force Western Test Range (AFWTR). Debris objects in space refer to the collection of defunct objects orbiting the Earth. Examples of debris include non-operational satellites, rocket bodies, and fragments generated from explosions, collisions, or faulty payload assembly.

Loading next visibility...
Identifier
2256, 1966-056C
Orbit
LEO
Country
Flag of USUS
Related business
Manufacturer
Goodyear
Mission
Spacecraft
Bus & Motor
ECHO CANISTER, Unknown motor
Mass
9 kg wet, 9 kg dry
Launch date (UTC)
1966-06-24 (60 years ago)
Launch vehicle
Unknown
Launch site
Air Force Western Test Range (AFWTR)
Object type
Payload
Rocket body
Debris
Shape & HBR
DOME, 0.4 m
Radar Cross Section
Large (>1 m²)

Expand to show TLE details & history
Last TLE update: 1 day ago

TLE from 1 day ago
0 PAGEOS 1 DEB
1 02256U 66056C   26235.22159442 -.00000063  00000-0 -63401-1 0  9991
2 02256  86.9363 153.2211 0035407 118.5256 241.9122  7.93536827743795
Epoch: 2026-08-23T05:19Z
TLE epoch observation values (Epoch: 2026-08-23T05:19:05.757Z)
Latitude
0.00002°
Longitude
101.92636°
Altitude
4,259.266 km
Speed
6.117 km/s
True Right ascension
10h 12m 53s
True Declination
0° 00' 00"
Sunlit
Object was in daylight at epoch
Visualization orbit readout
Latitude
Unknown
Longitude
Unknown
Altitude
Unknown
Speed
Unknown
Apparent Right ascension
Unknown
Apparent Declination
Unknown
Sunlit
N/A
Visualization observer readout
Local Sidereal Time
00:23:34
Azimuth
Unknown
Elevation
Unknown
Doppler factor
Unknown
Orbital elements
Apogee altitude
4,274.937 km
Perigee altitude
4,199.764 km
Semi-major axis
10,615.488 km
Eccentricity
0.00354
Inclination
86.9363°
RAAN
153.2211°
Arg. of periapsis
118.5256°
True anomaly
241.555°
Mean anomaly
241.9122°
Eccentric anomaly
241.73352°
Mean motion
1.98442 °/min
Orbital period
181.41 mins
BSTAR
-0.063401
Loading maneuver chart data...
Computing Atmospheric mass density...

Documentation

Showing up to 5 results
|